St. Catharines Glass Ave

*Note: All times are displayed in the local standard time of the station location.
**Rain - Equipment is designed to accurately record liquid precipitation; under conditions when precipitation is not in liquid form, the data displayed may not properly reflect rainfall values.

Date Max Temp
(°C)
Min Temp
(°C)
Avg Temp
(°C)
Rain (mm) Avg RH (%)
Sat, Feb 17, 2018 -0.9 -5.5 -2.7 0.0 70.2
Fri, Feb 16, 2018 4.5 -5.1 0.4 0.2 73.5
Thu, Feb 15, 2018 9.2 2.5 6.1 0.2 93.4
Wed, Feb 14, 2018 5.6 -5.9 2.8 9.0 72.9
Tue, Feb 13, 2018 2.5 -16.3 -7.7 0.8 73.9
Mon, Feb 12, 2018 -1.0 -8.8 -4.2 0.4 66.9
Sun, Feb 11, 2018 1.0 -3.7 -1.5 0.2 87.7
DateTime Avg Temp (°C) Rain (mm) RH (%)
Sun, Feb 18, 2018 04:00 -1.8 0.0 83.3
Sun, Feb 18, 2018 03:00 -1.4 0.0 80.8
Sun, Feb 18, 2018 02:00 -1.3 0.0 81.8
Sun, Feb 18, 2018 01:00 -1.5 0.0 84.3
Sun, Feb 18, 2018 00:00 -1.2 0.0 81.5
Sat, Feb 17, 2018 23:00 -1.1 0.0 76.5
Sat, Feb 17, 2018 22:00 -1.4 0.0 71.8
Sat, Feb 17, 2018 21:00 -1.5 0.0 70.8
Sat, Feb 17, 2018 20:00 -1.5 0.0 68.0
Sat, Feb 17, 2018 19:00 -1.4 0.0 62.3
Sat, Feb 17, 2018 18:00 -1.1 0.0 59.0
Sat, Feb 17, 2018 17:00 -1.0 0.0 58.0
Sat, Feb 17, 2018 16:00 -1.0 0.0 61.3
Sat, Feb 17, 2018 15:00 -0.9 0.0 61.0
Sat, Feb 17, 2018 14:00 -0.9 0.0 61.8
Sat, Feb 17, 2018 13:00 -1.1 0.0 61.0
Sat, Feb 17, 2018 12:00 -1.1 0.0 63.3
Sat, Feb 17, 2018 11:00 -1.5 0.0 65.0
Sat, Feb 17, 2018 10:00 -2.5 0.0 68.3
Sat, Feb 17, 2018 09:00 -3.9 0.0 73.8
Sat, Feb 17, 2018 08:00 -5.2 0.0 77.8
Sat, Feb 17, 2018 07:00 -5.3 0.0 78.5
Sat, Feb 17, 2018 06:00 -5.2 0.0 79.8
Sat, Feb 17, 2018 05:00 -5.0 0.0 79.3
Sat, Feb 17, 2018 04:00 -5.0 0.0 78.8
Sat, Feb 17, 2018 03:00 -5.3 0.0 78.3
Sat, Feb 17, 2018 02:00 -5.3 0.0 74.0
Sat, Feb 17, 2018 01:00 -5.3 0.0 76.0
Sat, Feb 17, 2018 00:00 -5.0 0.0 74.0
Fri, Feb 16, 2018 23:00 -4.9 0.0 72.8
Fri, Feb 16, 2018 22:00 -4.4 0.0 69.8
Fri, Feb 16, 2018 21:00 -3.9 0.0 62.8
Fri, Feb 16, 2018 20:00 -3.3 0.0 55.5
Fri, Feb 16, 2018 19:00 -3.0 0.0 55.5
Fri, Feb 16, 2018 18:00 -2.3 0.0 53.3
Fri, Feb 16, 2018 17:00 -0.6 0.0 55.3
Fri, Feb 16, 2018 16:00 0.2 0.0 58.5
Fri, Feb 16, 2018 15:00 1.6 0.0 56.0
Fri, Feb 16, 2018 14:00 1.9 0.0 58.5
Fri, Feb 16, 2018 13:00 2.1 0.0 62.0
Fri, Feb 16, 2018 12:00 2.0 0.2 70.8
Fri, Feb 16, 2018 11:00 1.6 0.0 82.3
Fri, Feb 16, 2018 10:00 1.6 0.0 82.3
Fri, Feb 16, 2018 09:00 1.4 0.0 82.5
Fri, Feb 16, 2018 08:00 1.4 0.0 83.5
Fri, Feb 16, 2018 07:00 2.2 0.0 85.8
Fri, Feb 16, 2018 06:00 2.7 0.0 84.8
Fri, Feb 16, 2018 05:00 3.1 0.0 80.3


asterix Register now to access more data! asterix